Year,Month,Day,Hour,Minute,Value (Times are PST for temperature in C)
2011,03,17,00,00,4.10
2011,03,17,00,01,4.10
2011,03,17,00,02,4.10
2011,03,17,00,03,4.10
2011,03,17,00,04,4.10
2011,03,17,00,05,4.00
2011,03,17,00,06,4.00
2011,03,17,00,07,4.00
2011,03,17,00,08,4.00
2011,03,17,00,09,4.00
2011,03,17,00,10,4.00
2011,03,17,00,11,4.00
2011,03,17,00,12,4.10
2011,03,17,00,13,4.10
2011,03,17,00,14,4.20
2011,03,17,00,15,4.20
2011,03,17,00,16,4.30
2011,03,17,00,17,4.40
2011,03,17,00,18,4.50
2011,03,17,00,19,4.50
2011,03,17,00,20,4.60
2011,03,17,00,21,4.70
2011,03,17,00,22,4.70
2011,03,17,00,23,4.70
2011,03,17,00,24,4.80
2011,03,17,00,25,4.80
2011,03,17,00,26,4.80
2011,03,17,00,27,4.80
2011,03,17,00,28,4.80
2011,03,17,00,29,4.80
2011,03,17,00,30,4.80
2011,03,17,00,31,4.80
2011,03,17,00,32,4.70
2011,03,17,00,33,4.70
2011,03,17,00,34,4.70
2011,03,17,00,35,4.60
2011,03,17,00,36,4.60
2011,03,17,00,37,4.50
2011,03,17,00,38,4.50
2011,03,17,00,39,4.40
2011,03,17,00,40,4.30
2011,03,17,00,41,4.30
2011,03,17,00,42,4.20
2011,03,17,00,43,4.20
2011,03,17,00,44,4.10
2011,03,17,00,45,4.10
2011,03,17,00,46,4.10
2011,03,17,00,47,4.00
2011,03,17,00,48,4.00
2011,03,17,00,49,3.90
2011,03,17,00,50,3.90
2011,03,17,00,51,3.80
2011,03,17,00,52,3.80
2011,03,17,00,53,3.80
2011,03,17,00,54,3.70
2011,03,17,00,55,3.70
2011,03,17,00,56,3.70
2011,03,17,00,57,3.60
2011,03,17,00,58,3.60
2011,03,17,00,59,3.60
2011,03,17,01,00,3.50
2011,03,17,01,01,3.50
2011,03,17,01,02,3.40
2011,03,17,01,03,3.40
2011,03,17,01,04,3.40
2011,03,17,01,05,3.30
2011,03,17,01,06,3.30
2011,03,17,01,07,3.30
2011,03,17,01,08,3.20
2011,03,17,01,09,3.20
2011,03,17,01,10,3.20
2011,03,17,01,11,3.10
2011,03,17,01,12,3.10
2011,03,17,01,13,3.10
2011,03,17,01,14,3.00
2011,03,17,01,15,3.00
2011,03,17,01,16,2.90
2011,03,17,01,17,2.90
2011,03,17,01,18,2.90
2011,03,17,01,19,2.80
2011,03,17,01,20,2.80
2011,03,17,01,21,2.80
2011,03,17,01,22,2.80
2011,03,17,01,23,2.70
2011,03,17,01,24,2.70
2011,03,17,01,25,2.70
2011,03,17,01,26,2.70
2011,03,17,01,27,2.60
2011,03,17,01,28,2.60
2011,03,17,01,29,2.60
2011,03,17,01,30,2.60
2011,03,17,01,31,2.60
2011,03,17,01,32,2.60
2011,03,17,01,33,2.50
2011,03,17,01,34,2.50
2011,03,17,01,35,2.50
2011,03,17,01,36,2.50
2011,03,17,01,37,2.50
2011,03,17,01,38,2.40
2011,03,17,01,39,2.40
2011,03,17,01,40,2.40
2011,03,17,01,41,2.40
2011,03,17,01,42,2.40
2011,03,17,01,43,2.40
2011,03,17,01,44,2.30
2011,03,17,01,45,2.30
2011,03,17,01,46,2.30
2011,03,17,01,47,2.30
2011,03,17,01,48,2.30
2011,03,17,01,49,2.30
2011,03,17,01,50,2.30
2011,03,17,01,51,2.20
2011,03,17,01,52,2.20
2011,03,17,01,53,2.20
2011,03,17,01,54,2.20
2011,03,17,01,55,2.20
2011,03,17,01,56,2.20
2011,03,17,01,57,2.10
2011,03,17,01,58,2.10
2011,03,17,01,59,2.10
2011,03,17,02,00,2.10
2011,03,17,02,01,2.00
2011,03,17,02,02,2.00
2011,03,17,02,03,2.00
2011,03,17,02,04,2.00
2011,03,17,02,05,1.90
2011,03,17,02,06,1.90
2011,03,17,02,07,1.90
2011,03,17,02,08,1.80
2011,03,17,02,09,1.80
2011,03,17,02,10,1.80
2011,03,17,02,11,1.80
2011,03,17,02,12,1.80
2011,03,17,02,13,1.80
2011,03,17,02,14,1.80
2011,03,17,02,15,1.70
2011,03,17,02,16,1.70
2011,03,17,02,17,1.70
2011,03,17,02,18,1.70
2011,03,17,02,19,1.70
2011,03,17,02,20,1.70
2011,03,17,02,21,1.70
2011,03,17,02,22,1.70
2011,03,17,02,23,1.70
2011,03,17,02,24,1.70
2011,03,17,02,25,1.70
2011,03,17,02,26,1.70
2011,03,17,02,27,1.70
2011,03,17,02,28,1.60
2011,03,17,02,29,1.60
2011,03,17,02,30,1.60
2011,03,17,02,31,1.60
2011,03,17,02,32,1.60
2011,03,17,02,33,1.60
2011,03,17,02,34,1.60
2011,03,17,02,35,1.60
2011,03,17,02,36,1.60
2011,03,17,02,37,1.60
2011,03,17,02,38,1.60
2011,03,17,02,39,1.50
2011,03,17,02,40,1.60
2011,03,17,02,41,1.60
2011,03,17,02,42,1.60
2011,03,17,02,43,1.60
2011,03,17,02,44,1.50
2011,03,17,02,45,1.50
2011,03,17,02,46,1.50
2011,03,17,02,47,1.50
2011,03,17,02,48,1.50
2011,03,17,02,49,1.50
2011,03,17,02,50,1.50
2011,03,17,02,51,1.50
2011,03,17,02,52,1.50
2011,03,17,02,53,1.40
2011,03,17,02,54,1.40
2011,03,17,02,55,1.40
2011,03,17,02,56,1.40
2011,03,17,02,57,1.40
2011,03,17,02,58,1.40
2011,03,17,02,59,1.40
2011,03,17,03,00,1.40
2011,03,17,03,01,1.30
2011,03,17,03,02,1.30
2011,03,17,03,03,1.30
2011,03,17,03,04,1.30
2011,03,17,03,05,1.30
2011,03,17,03,06,1.40
2011,03,17,03,07,1.40
2011,03,17,03,08,1.50
2011,03,17,03,09,1.50
2011,03,17,03,10,1.50
2011,03,17,03,11,1.50
2011,03,17,03,12,1.60
2011,03,17,03,13,1.60
2011,03,17,03,14,1.60
2011,03,17,03,15,1.60
2011,03,17,03,16,1.60
2011,03,17,03,17,1.60
2011,03,17,03,18,1.60
2011,03,17,03,19,1.50
2011,03,17,03,20,1.50
2011,03,17,03,21,1.50
2011,03,17,03,22,1.50
2011,03,17,03,23,1.40
2011,03,17,03,24,1.40
2011,03,17,03,25,1.40
2011,03,17,03,26,1.40
2011,03,17,03,27,1.40
2011,03,17,03,28,1.30
2011,03,17,03,29,1.30
2011,03,17,03,30,1.30
2011,03,17,03,31,1.30
2011,03,17,03,32,1.30
2011,03,17,03,33,1.30
2011,03,17,03,34,1.30
2011,03,17,03,35,1.30
2011,03,17,03,36,1.30
2011,03,17,03,37,1.30
2011,03,17,03,38,1.30
2011,03,17,03,39,1.30
2011,03,17,03,40,1.30
2011,03,17,03,41,1.30
2011,03,17,03,42,1.20
2011,03,17,03,43,1.20
2011,03,17,03,44,1.20
2011,03,17,03,45,1.20
2011,03,17,03,46,1.20
2011,03,17,03,47,1.20
2011,03,17,03,48,1.20
2011,03,17,03,49,1.20
2011,03,17,03,50,1.20
2011,03,17,03,51,1.20
2011,03,17,03,52,1.20
2011,03,17,03,53,1.20
2011,03,17,03,54,1.20
2011,03,17,03,55,1.20
2011,03,17,03,56,1.20
2011,03,17,03,57,1.20
2011,03,17,03,58,1.20
2011,03,17,03,59,1.20
2011,03,17,04,00,1.20
2011,03,17,04,01,1.10
2011,03,17,04,02,1.10
2011,03,17,04,03,1.10
2011,03,17,04,04,1.10
2011,03,17,04,05,1.10
2011,03,17,04,06,1.10
2011,03,17,04,07,1.10
2011,03,17,04,08,1.10
2011,03,17,04,09,1.10
2011,03,17,04,10,1.10
2011,03,17,04,11,1.10
2011,03,17,04,12,1.00
2011,03,17,04,13,1.00
2011,03,17,04,14,1.00
2011,03,17,04,15,1.00
2011,03,17,04,16,0.90
2011,03,17,04,17,0.90
2011,03,17,04,18,0.90
2011,03,17,04,19,0.90
2011,03,17,04,20,0.90
2011,03,17,04,21,0.90
2011,03,17,04,22,0.90
2011,03,17,04,23,0.90
2011,03,17,04,24,0.90
2011,03,17,04,25,0.80
2011,03,17,04,26,0.80
2011,03,17,04,27,0.80
2011,03,17,04,28,0.80
2011,03,17,04,29,0.80
2011,03,17,04,30,0.80
2011,03,17,04,31,0.80
2011,03,17,04,32,0.80
2011,03,17,04,33,0.70
2011,03,17,04,34,0.70
2011,03,17,04,35,0.70
2011,03,17,04,36,0.70
2011,03,17,04,37,0.70
2011,03,17,04,38,0.70
2011,03,17,04,39,0.70
2011,03,17,04,40,0.60
2011,03,17,04,41,0.60
2011,03,17,04,42,0.60
2011,03,17,04,43,0.60
2011,03,17,04,44,0.60
2011,03,17,04,45,0.60
2011,03,17,04,46,0.60
2011,03,17,04,47,0.60
2011,03,17,04,48,0.60
2011,03,17,04,49,0.60
2011,03,17,04,50,0.60
2011,03,17,04,51,0.60
2011,03,17,04,52,0.60
2011,03,17,04,53,0.60
2011,03,17,04,54,0.60
2011,03,17,04,55,0.60
2011,03,17,04,56,0.60
2011,03,17,04,57,0.60
2011,03,17,04,58,0.60
2011,03,17,04,59,0.70
2011,03,17,05,00,0.70
2011,03,17,05,01,0.70
2011,03,17,05,02,0.70
2011,03,17,05,03,0.70
2011,03,17,05,04,0.70
2011,03,17,05,05,0.70
2011,03,17,05,06,0.60
2011,03,17,05,07,0.60
2011,03,17,05,08,0.60
2011,03,17,05,09,0.60
2011,03,17,05,10,0.60
2011,03,17,05,11,0.60
2011,03,17,05,12,0.60
2011,03,17,05,13,0.60
2011,03,17,05,14,0.50
2011,03,17,05,15,0.50
2011,03,17,05,16,0.50
2011,03,17,05,17,0.50
2011,03,17,05,18,0.40
2011,03,17,05,19,0.40
2011,03,17,05,20,0.40
2011,03,17,05,21,0.40
2011,03,17,05,22,0.40
2011,03,17,05,23,0.30
2011,03,17,05,24,0.30
2011,03,17,05,25,0.30
2011,03,17,05,26,0.30
2011,03,17,05,27,0.30
2011,03,17,05,28,0.30
2011,03,17,05,29,0.30
2011,03,17,05,30,0.30
2011,03,17,05,31,0.30
2011,03,17,05,32,0.30
2011,03,17,05,33,0.30
2011,03,17,05,34,0.30
2011,03,17,05,35,0.30
2011,03,17,05,36,0.30
2011,03,17,05,37,0.40
2011,03,17,05,38,0.40
2011,03,17,05,39,0.40
2011,03,17,05,40,0.40
2011,03,17,05,41,0.40
2011,03,17,05,42,0.40
2011,03,17,05,43,0.40
2011,03,17,05,44,0.40
2011,03,17,05,45,0.40
2011,03,17,05,46,0.40
2011,03,17,05,47,0.40
2011,03,17,05,48,0.40
2011,03,17,05,49,0.40
2011,03,17,05,50,0.40
2011,03,17,09,13,4.10
2011,03,17,09,14,4.10
2011,03,17,09,15,4.10
2011,03,17,09,16,4.10
2011,03,17,09,17,4.10
2011,03,17,09,18,4.10
2011,03,17,09,19,4.10
2011,03,17,09,20,4.20
2011,03,17,09,21,4.20
2011,03,17,09,22,4.20
2011,03,17,09,23,4.20
2011,03,17,09,24,4.20
2011,03,17,09,25,4.20
2011,03,17,09,26,4.20
2011,03,17,09,27,4.20
2011,03,17,09,28,4.20
2011,03,17,09,29,4.20
2011,03,17,09,30,4.20
2011,03,17,09,31,4.20
2011,03,17,09,32,4.30
2011,03,17,09,33,4.30
2011,03,17,09,34,4.30
2011,03,17,09,35,4.30
2011,03,17,09,36,4.30
2011,03,17,09,37,4.30
2011,03,17,09,38,4.30
2011,03,17,09,39,4.40
2011,03,17,09,40,4.40
2011,03,17,09,41,4.40
2011,03,17,09,42,4.40
2011,03,17,09,43,4.50
2011,03,17,09,44,4.40
2011,03,17,09,45,4.40
2011,03,17,09,46,4.40
2011,03,17,09,47,4.50
2011,03,17,09,48,4.50
2011,03,17,09,49,4.50
2011,03,17,09,50,4.40
2011,03,17,09,51,4.40
2011,03,17,09,52,4.40
2011,03,17,09,53,4.50
2011,03,17,09,54,4.50
2011,03,17,09,55,4.40
2011,03,17,09,56,4.40
2011,03,17,09,57,4.40
2011,03,17,09,58,4.50
2011,03,17,09,59,4.50
2011,03,17,10,00,4.50
2011,03,17,10,01,4.50
2011,03,17,10,02,4.50
2011,03,17,10,03,4.60
2011,03,17,10,04,4.60
2011,03,17,10,05,4.60
2011,03,17,10,06,4.60
2011,03,17,10,07,4.60
2011,03,17,10,08,4.60
2011,03,17,10,09,4.60
2011,03,17,10,10,4.60
2011,03,17,10,11,4.60
2011,03,17,10,12,4.60
2011,03,17,10,13,4.60
2011,03,17,10,14,4.60
2011,03,17,10,15,4.60
2011,03,17,10,16,4.70
2011,03,17,10,17,4.70
2011,03,17,10,18,4.70
2011,03,17,10,19,4.70
2011,03,17,10,20,4.70
2011,03,17,10,21,4.70
2011,03,17,10,22,4.80
2011,03,17,10,23,4.80
2011,03,17,10,24,4.80
2011,03,17,10,25,4.80
2011,03,17,10,26,4.80
2011,03,17,10,27,4.80
2011,03,17,10,28,4.90
2011,03,17,10,29,4.90
2011,03,17,10,30,4.90
2011,03,17,10,31,4.90
2011,03,17,10,32,4.90
2011,03,17,10,33,4.90
2011,03,17,10,34,4.90
2011,03,17,10,35,4.90
2011,03,17,10,36,4.90
2011,03,17,10,37,4.90
2011,03,17,10,38,4.90
2011,03,17,10,39,5.00
2011,03,17,10,40,5.00
2011,03,17,10,41,4.90
2011,03,17,10,42,4.90
2011,03,17,10,43,4.90
2011,03,17,10,44,4.90
2011,03,17,10,45,4.90
2011,03,17,10,46,4.90
2011,03,17,10,47,4.90
2011,03,17,10,48,4.90
2011,03,17,10,49,5.00
2011,03,17,10,50,5.00
2011,03,17,10,51,5.00
2011,03,17,10,52,4.90
2011,03,17,10,53,4.90
2011,03,17,10,54,4.90
2011,03,17,10,55,4.90
2011,03,17,10,56,4.90
2011,03,17,10,57,4.90
2011,03,17,10,58,4.90
2011,03,17,10,59,4.90
2011,03,17,11,00,4.80
2011,03,17,11,01,4.80
2011,03,17,11,02,4.80
2011,03,17,11,03,4.80
2011,03,17,11,04,4.80
2011,03,17,11,05,4.80
2011,03,17,11,06,4.80
2011,03,17,11,07,4.80
2011,03,17,11,08,4.80
2011,03,17,11,09,4.80
2011,03,17,11,10,4.80
2011,03,17,11,11,4.80
2011,03,17,11,12,4.80
2011,03,17,11,13,4.80
2011,03,17,11,14,4.80
2011,03,17,11,15,4.80
2011,03,17,11,16,4.90
2011,03,17,11,17,4.90
2011,03,17,11,18,4.90
2011,03,17,11,19,4.90
2011,03,17,11,20,4.90
2011,03,17,11,21,5.00
2011,03,17,11,22,5.00
2011,03,17,11,23,5.00
2011,03,17,11,24,5.00
2011,03,17,11,25,5.00
2011,03,17,11,26,5.10
2011,03,17,11,27,5.10
2011,03,17,11,28,5.10
2011,03,17,11,29,5.10
2011,03,17,11,30,5.10
2011,03,17,11,31,5.10
2011,03,17,11,32,5.10
2011,03,17,11,33,5.10
2011,03,17,11,34,5.10
2011,03,17,11,35,5.10
2011,03,17,11,36,5.10
2011,03,17,11,37,5.10
2011,03,17,11,38,5.20
2011,03,17,11,39,5.20
2011,03,17,11,40,5.20
2011,03,17,11,41,5.20
2011,03,17,11,42,5.20
2011,03,17,11,43,5.20
2011,03,17,11,44,5.30
2011,03,17,11,45,5.30
2011,03,17,11,46,5.30
2011,03,17,11,47,5.30
2011,03,17,11,48,5.30
2011,03,17,11,49,5.30
2011,03,17,11,50,5.30
2011,03,17,11,51,5.30
2011,03,17,11,52,5.30
2011,03,17,11,53,5.40
2011,03,17,11,54,5.40
2011,03,17,11,55,5.40
2011,03,17,11,56,5.40
2011,03,17,11,57,5.40
2011,03,17,11,58,5.40
2011,03,17,11,59,5.40
2011,03,17,12,00,5.40
2011,03,17,12,01,5.40
2011,03,17,12,02,5.40
2011,03,17,12,03,5.40
2011,03,17,12,04,5.50
2011,03,17,12,05,5.50
2011,03,17,12,06,5.50
2011,03,17,12,07,5.60
2011,03,17,12,08,5.60
2011,03,17,12,09,5.60
2011,03,17,12,10,5.60
2011,03,17,12,11,5.60
2011,03,17,12,12,5.60
2011,03,17,12,13,5.60
2011,03,17,12,14,5.60
2011,03,17,12,15,5.60
2011,03,17,12,16,5.60
2011,03,17,12,17,5.60
2011,03,17,12,18,5.70
2011,03,17,12,19,5.70
2011,03,17,12,20,5.70
2011,03,17,12,21,5.70
2011,03,17,12,22,5.70
2011,03,17,12,23,5.70
2011,03,17,12,24,5.80
2011,03,17,12,25,5.80
2011,03,17,12,26,5.80
2011,03,17,12,27,5.80
2011,03,17,12,28,5.90
2011,03,17,12,29,5.90
2011,03,17,12,30,5.90
2011,03,17,12,31,5.90
2011,03,17,12,32,5.90
2011,03,17,12,33,5.90
2011,03,17,12,34,6.00
2011,03,17,12,35,6.00
2011,03,17,12,36,6.00
2011,03,17,12,37,6.00
2011,03,17,12,38,6.00
2011,03,17,12,39,6.00
2011,03,17,12,40,6.00
2011,03,17,12,41,6.00
2011,03,17,12,42,6.00
2011,03,17,12,43,6.00
2011,03,17,12,44,6.00
2011,03,17,12,45,6.00
2011,03,17,12,46,6.00
2011,03,17,12,47,6.10
2011,03,17,12,48,6.10
2011,03,17,12,49,6.10
2011,03,17,12,50,6.10
2011,03,17,12,51,6.10
2011,03,17,12,52,6.10
2011,03,17,12,53,6.10
2011,03,17,12,54,6.10
2011,03,17,12,55,6.10
2011,03,17,12,56,6.20
2011,03,17,12,57,6.20
2011,03,17,12,58,6.20
2011,03,17,12,59,6.20
2011,03,17,13,00,6.30
2011,03,17,13,01,6.30
2011,03,17,13,02,6.30
2011,03,17,13,03,6.30
2011,03,17,13,04,6.30
2011,03,17,13,05,6.40
2011,03,17,13,06,6.40
2011,03,17,13,07,6.40
2011,03,17,13,08,6.40
2011,03,17,13,09,6.40
2011,03,17,13,10,6.40
2011,03,17,13,11,6.50
2011,03,17,13,12,6.50
2011,03,17,13,13,6.50
2011,03,17,13,14,6.50
2011,03,17,13,15,6.50
2011,03,17,13,16,6.50
2011,03,17,13,17,6.50
2011,03,17,13,18,6.50
2011,03,17,13,19,6.50
2011,03,17,13,20,6.50
2011,03,17,13,21,6.50
2011,03,17,13,22,6.60
2011,03,17,13,23,6.60
2011,03,17,13,24,6.60
2011,03,17,13,25,6.60
2011,03,17,13,26,6.60
2011,03,17,13,27,6.60
2011,03,17,13,28,6.60
2011,03,17,13,29,6.60
2011,03,17,13,30,6.60
2011,03,17,13,31,6.60
2011,03,17,13,32,6.60
2011,03,17,13,33,6.70
2011,03,17,13,34,6.70
2011,03,17,13,35,6.70
2011,03,17,13,36,6.70
2011,03,17,13,37,6.80
2011,03,17,13,38,6.80
2011,03,17,13,39,6.80
2011,03,17,13,40,6.80
2011,03,17,13,41,6.90
2011,03,17,13,42,6.90
2011,03,17,13,43,7.00
2011,03,17,13,44,7.10
2011,03,17,13,45,7.10
2011,03,17,13,46,7.20
2011,03,17,13,47,7.10
2011,03,17,13,48,7.10
2011,03,17,13,49,7.10
2011,03,17,13,50,7.10
2011,03,17,13,51,7.20
2011,03,17,13,52,7.20
2011,03,17,13,53,7.20
2011,03,17,13,54,7.20
2011,03,17,13,55,7.20
2011,03,17,13,56,7.20
2011,03,17,13,57,7.20
2011,03,17,13,58,7.20
2011,03,17,13,59,7.20
2011,03,17,14,00,7.10
2011,03,17,14,01,7.10
2011,03,17,14,02,7.10
2011,03,17,14,03,7.20
2011,03,17,14,04,7.20
2011,03,17,14,05,7.20
2011,03,17,14,06,7.20
2011,03,17,14,07,7.20
2011,03,17,14,08,7.20
2011,03,17,14,09,7.20
2011,03,17,14,10,7.20
2011,03,17,14,11,7.20
2011,03,17,14,12,7.20
2011,03,17,14,13,7.20
2011,03,17,14,14,7.20
2011,03,17,14,15,7.20
2011,03,17,14,16,7.20
2011,03,17,14,17,7.20
2011,03,17,14,18,7.20
2011,03,17,14,19,7.20
2011,03,17,14,20,7.20
2011,03,17,14,21,7.20
2011,03,17,14,22,7.20
2011,03,17,14,23,7.20
2011,03,17,14,24,7.20
2011,03,17,14,25,7.20
2011,03,17,14,26,7.20
2011,03,17,14,27,7.20
2011,03,17,14,28,7.30
2011,03,17,14,29,7.30
2011,03,17,14,30,7.30
2011,03,17,14,31,7.30
2011,03,17,14,32,7.40
2011,03,17,14,33,7.40
2011,03,17,14,34,7.40
2011,03,17,14,35,7.50
2011,03,17,14,36,7.50
2011,03,17,14,37,7.50
2011,03,17,14,38,7.40
2011,03,17,14,39,7.40
2011,03,17,14,40,7.50
2011,03,17,14,41,7.50
2011,03,17,14,42,7.40
2011,03,17,14,43,7.50
2011,03,17,14,44,7.50
2011,03,17,14,45,7.40
2011,03,17,14,46,7.40
2011,03,17,14,47,7.40
2011,03,17,14,48,7.40
2011,03,17,14,49,7.40
2011,03,17,14,50,7.40
2011,03,17,14,51,7.40
2011,03,17,14,52,7.50
2011,03,17,14,53,7.50
2011,03,17,14,54,7.50
2011,03,17,14,55,7.50
2011,03,17,14,56,7.50
2011,03,17,14,57,7.50
2011,03,17,14,58,7.60
2011,03,17,14,59,7.60
2011,03,17,15,00,7.60
2011,03,17,15,01,7.60
2011,03,17,15,02,7.60
2011,03,17,15,03,7.60
2011,03,17,15,04,7.60
2011,03,17,15,05,7.60
2011,03,17,15,06,7.60
2011,03,17,15,07,7.60
2011,03,17,15,08,7.60
2011,03,17,15,09,7.60
2011,03,17,15,10,7.60
2011,03,17,15,11,7.60
2011,03,17,15,12,7.60
2011,03,17,15,13,7.60
2011,03,17,15,14,7.60
2011,03,17,15,15,7.60
2011,03,17,15,16,7.60
2011,03,17,15,17,7.60
2011,03,17,15,18,7.70
2011,03,17,15,19,7.70
2011,03,17,15,20,7.70
2011,03,17,15,21,7.70
2011,03,17,15,22,7.70
2011,03,17,15,23,7.70
2011,03,17,15,24,7.70
2011,03,17,15,25,7.70
2011,03,17,15,26,7.70
2011,03,17,15,27,7.70
2011,03,17,15,28,7.70
2011,03,17,15,29,7.70
2011,03,17,15,30,7.80
2011,03,17,15,31,7.80
2011,03,17,15,32,7.80
2011,03,17,15,33,7.80
2011,03,17,15,34,7.80
2011,03,17,15,35,7.90
2011,03,17,15,36,7.90
2011,03,17,15,37,7.90
2011,03,17,15,38,7.90
2011,03,17,15,39,7.90
2011,03,17,15,40,7.90
2011,03,17,15,41,7.90
2011,03,17,15,42,8.00
2011,03,17,15,43,8.00
2011,03,17,15,44,8.00
2011,03,17,15,45,8.10
2011,03,17,15,46,8.10
2011,03,17,15,47,8.20
2011,03,17,15,48,8.20
2011,03,17,15,49,8.20
2011,03,17,15,50,8.20
2011,03,17,15,51,8.30
2011,03,17,15,52,8.30
2011,03,17,15,53,8.30
2011,03,17,15,54,8.30
2011,03,17,15,55,8.30
2011,03,17,15,56,8.30
2011,03,17,15,57,8.40
2011,03,17,15,58,8.40
2011,03,17,15,59,8.40
2011,03,17,16,00,8.40
2011,03,17,16,01,8.40
2011,03,17,16,02,8.40
2011,03,17,16,03,8.50
2011,03,17,16,04,8.50
2011,03,17,16,05,8.50
2011,03,17,16,06,8.60
2011,03,17,16,07,8.60
2011,03,17,16,08,8.60
2011,03,17,16,09,8.70
2011,03,17,16,10,8.70
2011,03,17,16,11,8.70
2011,03,17,16,12,8.70
2011,03,17,16,13,8.70
2011,03,17,16,14,8.70
2011,03,17,16,15,8.70
2011,03,17,16,16,8.60
2011,03,17,16,17,8.60
2011,03,17,16,18,8.60
2011,03,17,16,19,8.60
2011,03,17,16,20,8.60
2011,03,17,16,21,8.60
2011,03,17,16,22,8.60
2011,03,17,16,23,8.60
2011,03,17,16,24,8.60
2011,03,17,16,25,8.60
2011,03,17,16,26,8.60
2011,03,17,16,27,8.60
2011,03,17,16,28,8.60
2011,03,17,16,29,8.60
2011,03,17,16,30,8.60
2011,03,17,16,31,8.60
2011,03,17,16,32,8.60
2011,03,17,16,33,8.60
2011,03,17,16,34,8.60
2011,03,17,16,35,8.60
2011,03,17,16,36,8.60
2011,03,17,16,37,8.60
2011,03,17,16,38,8.60
2011,03,17,16,39,8.60
2011,03,17,16,40,8.60
2011,03,17,16,41,8.60
2011,03,17,16,42,8.60
2011,03,17,16,43,8.70
2011,03,17,16,44,8.70
2011,03,17,16,45,8.70
2011,03,17,16,46,8.70
2011,03,17,16,47,8.70
2011,03,17,16,48,8.70
2011,03,17,16,49,8.70
2011,03,17,16,50,8.70
2011,03,17,16,51,8.70
2011,03,17,16,52,8.70
2011,03,17,16,53,8.70
2011,03,17,16,54,8.70
2011,03,17,16,55,8.70
2011,03,17,16,56,8.70
2011,03,17,16,57,8.70
2011,03,17,16,58,8.70
2011,03,17,16,59,8.70
2011,03,17,17,00,8.70
2011,03,17,17,01,8.70
2011,03,17,17,02,8.70
2011,03,17,17,03,8.70
2011,03,17,17,04,8.70
2011,03,17,17,05,8.70
2011,03,17,17,06,8.70
2011,03,17,17,07,8.70
2011,03,17,17,08,8.70
2011,03,17,17,09,8.70
2011,03,17,17,10,8.70
2011,03,17,17,11,8.70
2011,03,17,17,12,8.70
2011,03,17,17,13,8.70
2011,03,17,17,14,8.80
2011,03,17,17,15,8.80
2011,03,17,17,16,8.80
2011,03,17,17,17,8.90
2011,03,17,17,18,9.00
2011,03,17,17,19,9.00
2011,03,17,17,20,9.10
2011,03,17,17,21,9.20
2011,03,17,17,22,9.10
2011,03,17,17,23,9.10
2011,03,17,17,24,9.10
2011,03,17,17,25,9.10
2011,03,17,17,26,9.00
2011,03,17,17,27,9.00
2011,03,17,17,28,8.90
2011,03,17,17,29,8.90
2011,03,17,17,30,8.90
2011,03,17,17,31,8.80
2011,03,17,17,32,8.70
2011,03,17,17,33,8.60
2011,03,17,17,34,8.60
2011,03,17,17,35,8.50
2011,03,17,17,36,8.50
2011,03,17,17,37,8.40
2011,03,17,17,38,8.40
2011,03,17,17,39,8.30
2011,03,17,17,40,8.30
2011,03,17,17,41,8.20
2011,03,17,17,42,8.20
2011,03,17,17,43,8.20
2011,03,17,17,44,8.20
2011,03,17,17,45,8.10
2011,03,17,17,46,8.10
2011,03,17,17,47,8.10
2011,03,17,17,48,8.10
2011,03,17,17,49,8.10
2011,03,17,17,50,8.00
2011,03,17,17,51,8.00
2011,03,17,17,52,8.00
2011,03,17,17,53,8.00
2011,03,17,17,54,8.00
2011,03,17,17,55,7.90
2011,03,17,17,56,7.90
2011,03,17,17,57,7.90
2011,03,17,17,58,7.90
2011,03,17,17,59,7.80
2011,03,17,18,00,7.80
2011,03,17,18,01,7.80
2011,03,17,18,02,7.80
2011,03,17,18,03,7.80
2011,03,17,18,04,7.70
2011,03,17,18,05,7.70
2011,03,17,18,06,7.70
2011,03,17,18,07,7.70
2011,03,17,18,08,7.70
2011,03,17,18,09,7.70
2011,03,17,18,10,7.60
2011,03,17,18,11,7.60
2011,03,17,18,12,7.60
2011,03,17,18,13,7.60
2011,03,17,18,14,7.60
2011,03,17,18,15,7.60
2011,03,17,18,16,7.60
2011,03,17,18,17,7.60
2011,03,17,18,18,7.50
2011,03,17,18,19,7.50
2011,03,17,18,20,7.50
2011,03,17,18,21,7.50
2011,03,17,18,22,7.50
2011,03,17,18,23,7.50
2011,03,17,18,24,7.40
2011,03,17,18,25,7.40
2011,03,17,18,26,7.40
2011,03,17,18,27,7.40
2011,03,17,18,28,7.40
2011,03,17,18,29,7.40
2011,03,17,18,30,7.30
2011,03,17,18,31,7.30
2011,03,17,18,32,7.30
2011,03,17,18,33,7.30
2011,03,17,18,34,7.30
2011,03,17,18,35,7.30
2011,03,17,18,36,7.30
2011,03,17,18,37,7.30
2011,03,17,18,38,7.30
2011,03,17,18,39,7.30
2011,03,17,18,40,7.30
2011,03,17,18,41,7.30
2011,03,17,18,42,7.30
2011,03,17,18,43,7.30
2011,03,17,18,44,7.30
2011,03,17,18,45,7.40
2011,03,17,18,46,7.40
2011,03,17,18,47,7.40
2011,03,17,18,48,7.40
2011,03,17,18,49,7.40
2011,03,17,18,50,7.40
2011,03,17,18,51,7.40
2011,03,17,18,52,7.40
2011,03,17,18,53,7.40
2011,03,17,18,54,7.50
2011,03,17,18,55,7.50
2011,03,17,18,56,7.50
2011,03,17,18,57,7.50
2011,03,17,18,58,7.50
2011,03,17,18,59,7.60
2011,03,17,19,00,7.60
2011,03,17,19,01,7.60
2011,03,17,19,02,7.60
2011,03,17,19,03,7.60
2011,03,17,19,04,7.60
2011,03,17,19,05,7.60
2011,03,17,19,06,7.60
2011,03,17,19,07,7.50
2011,03,17,19,08,7.50
2011,03,17,19,09,7.40
2011,03,17,19,10,7.40
2011,03,17,19,11,7.30
2011,03,17,19,12,7.30
2011,03,17,19,13,7.30
2011,03,17,19,14,7.30
2011,03,17,19,15,7.20
2011,03,17,19,16,7.20
2011,03,17,19,17,7.20
2011,03,17,19,18,7.20
2011,03,17,19,19,7.20
2011,03,17,19,20,7.20
2011,03,17,19,21,7.20
2011,03,17,19,22,7.20
2011,03,17,19,23,7.20
2011,03,17,19,24,7.20
2011,03,17,19,25,7.20
2011,03,17,19,26,7.20
2011,03,17,19,27,7.30
2011,03,17,19,28,7.30
2011,03,17,19,29,7.30
2011,03,17,19,30,7.20
2011,03,17,19,31,7.20
2011,03,17,19,32,7.20
2011,03,17,19,33,7.20
2011,03,17,19,34,7.20
2011,03,17,19,35,7.20
2011,03,17,19,36,7.20
2011,03,17,19,37,7.20
2011,03,17,19,38,7.30
2011,03,17,19,39,7.30
2011,03,17,19,40,7.30
2011,03,17,19,41,7.30
2011,03,17,19,42,7.20
2011,03,17,19,43,7.20
2011,03,17,19,44,7.20
2011,03,17,19,45,7.20
2011,03,17,19,46,7.20
2011,03,17,19,47,7.10
2011,03,17,19,48,7.10
2011,03,17,19,49,7.00
2011,03,17,19,50,7.00
2011,03,17,19,51,6.90
2011,03,17,19,52,6.90
2011,03,17,19,53,6.80
2011,03,17,19,54,6.80
2011,03,17,19,55,6.80
2011,03,17,19,56,6.70
2011,03,17,19,57,6.70
2011,03,17,19,58,6.70
2011,03,17,19,59,6.60
2011,03,17,20,00,6.70
2011,03,17,20,01,6.70
2011,03,17,20,02,6.70
2011,03,17,20,03,6.70
2011,03,17,20,04,6.70
2011,03,17,20,05,6.70
2011,03,17,20,06,6.70
2011,03,17,20,07,6.70
2011,03,17,20,08,6.70
2011,03,17,20,09,6.70
2011,03,17,20,10,6.70
2011,03,17,20,11,6.60
2011,03,17,20,12,6.60
2011,03,17,20,13,6.60
2011,03,17,20,14,6.60
2011,03,17,20,15,6.60
2011,03,17,20,16,6.60
2011,03,17,20,17,6.60
2011,03,17,20,18,6.60
2011,03,17,20,19,6.60
2011,03,17,20,20,6.60
2011,03,17,20,21,6.60
2011,03,17,20,22,6.60
2011,03,17,20,23,6.60
2011,03,17,20,24,6.60
2011,03,17,20,25,6.60
2011,03,17,20,26,6.60
2011,03,17,20,27,6.60
2011,03,17,20,28,6.60
2011,03,17,20,29,6.60
2011,03,17,20,30,6.50
2011,03,17,20,31,6.50
2011,03,17,20,32,6.50
2011,03,17,20,33,6.50
2011,03,17,20,34,6.50
2011,03,17,20,35,6.50
2011,03,17,20,36,6.50
2011,03,17,20,37,6.50
2011,03,17,20,38,6.60
2011,03,17,20,39,6.60
2011,03,17,20,40,6.60
2011,03,17,20,41,6.60
2011,03,17,20,42,6.60
2011,03,17,20,43,6.60
2011,03,17,20,44,6.60
2011,03,17,20,45,6.60
2011,03,17,20,46,6.50
2011,03,17,20,47,6.50
2011,03,17,20,48,6.50
2011,03,17,20,49,6.40
2011,03,17,20,50,6.40
2011,03,17,20,51,6.40
2011,03,17,20,52,6.40
2011,03,17,20,53,6.40
2011,03,17,20,54,6.40
2011,03,17,20,55,6.40
2011,03,17,20,56,6.40
2011,03,17,20,57,6.40
2011,03,17,20,58,6.30
2011,03,17,20,59,6.30
2011,03,17,21,00,6.30
2011,03,17,21,01,6.30
2011,03,17,21,02,6.20
2011,03,17,21,03,6.20
2011,03,17,21,04,6.20
2011,03,17,21,05,6.20
2011,03,17,21,06,6.20
2011,03,17,21,07,6.20
2011,03,17,21,08,6.20
2011,03,17,21,09,6.30
2011,03,17,21,10,6.20
2011,03,17,21,11,6.20
2011,03,17,21,12,6.20
2011,03,17,21,13,6.20
2011,03,17,21,14,6.20
2011,03,17,21,15,6.10
2011,03,17,21,16,6.10
2011,03,17,21,17,6.10
2011,03,17,21,18,6.10
2011,03,17,21,19,6.10
2011,03,17,21,20,6.20
2011,03,17,21,21,6.20
2011,03,17,21,22,6.20
2011,03,17,21,23,6.20
2011,03,17,21,24,6.20
2011,03,17,21,25,6.20
2011,03,17,21,26,6.20
2011,03,17,21,27,6.20
2011,03,17,21,28,6.20